This demonstration page uses our WeatherBlox Daily Observations layout. Learn more.

Left ArrowRight Arrow

41.86663, -103.66717

Hourly Observations for July 1, 2018

Temp ( °F °C ) Dew Point ( °F °C ) Humidity (%) Winds ( mph kmh ) Pressure ( in mb ) Visibility ( mi km ) Precip ( " mm )
12:53 am 00:53 Clear 53 11.7 52 11.1 96 96 W 7 11 29.99 1016 10 16 N/A
1:53 am 01:53 Clear 51 10.6 51 10.6 100 100 WNW 5 7 29.99 1016 10 16 N/A
2:53 am 02:53 Clear 50 10 50 10 100 100 W 5 7 30.01 1016 10 16 N/A
3:53 am 03:53 Clear 49 9.4 49 9.4 100 100 N N/A 30.04 1017 10 16 N/A
4:53 am 04:53 Clear 49 9.4 49 9.4 100 100 NW 7 11 30.03 1017 10 16 N/A
5:53 am 05:53 Sunny 50 10 49 9.4 96 96 NNW 6 9 30.04 1017 10 16 N/A
6:53 am 06:53 Sunny 54 12.2 50 10 87 87 N N/A 30.04 1017 10 16 N/A
7:53 am 07:53 Sunny 57 13.9 53 11.7 87 87 N N/A 30.02 1017 10 16 N/A
8:53 am 08:53 Sunny 62 16.7 55 12.8 78 78 NW 3 6 30.00 1016 10 16 N/A
9:53 am 09:53 Sunny 67 19.4 55 12.8 66 66 SSW 3 6 29.97 1015 10 16 N/A
10:53 am 10:53 Sunny 72 22.2 54 12.2 53 53 VRB 5 7 29.94 1014 10 16 N/A
11:53 am 11:53 Sunny 75 23.9 52 11.1 45 45 SSE 6 9 29.92 1013 10 16 N/A
12:53 pm 12:53 Sunny 78 25.6 55 12.8 45 45 E 8 13 29.89 1012 10 16 N/A
1:53 pm 13:53 Sunny 81 27.2 53 11.7 38 38 N 6 9 29.89 1012 10 16 N/A
2:53 pm 14:53 Sunny 82 27.8 48 8.9 31 31 NW 9 15 29.88 1012 10 16 N/A
3:53 pm 15:53 Sunny 84 28.9 48 8.9 29 29 N 6 9 29.87 1012 10 16 N/A
4:53 pm 16:53 Sunny 84 28.9 47 8.3 27 27 VRB 5 7 29.85 1011 10 16 N/A
5:53 pm 17:53 Sunny 83 28.3 48 8.9 30 30 SE 10 17 29.84 1011 10 16 N/A
6:53 pm 18:53 Sunny 78 25.6 53 11.7 42 42 SE 7 11 29.84 1011 10 16 N/A
7:53 pm 19:53 Sunny 76 24.4 61 16.1 60 60 E 7 11 29.85 1011 10 16 N/A
8:53 pm 20:53 Clear 69 20.6 61 16.1 76 76 E 6 9 29.85 1011 10 16 N/A
9:53 pm 21:53 Clear 67 19.4 59 15 76 76 E 9 15 29.87 1011 10 16 N/A
10:53 pm 22:53 Clear 63 17.2 59 15 87 87 E 8 13 29.86 1011 10 16 N/A
11:53 pm 23:53 Clear 65 18.3 58 14.4 78 78 E 9 15 29.85 1011 10 16 N/A

Powered by AerisWeather